STARLINK-2159, 47745

Orbit data source: Space-Track

STARLINK-2159, 47745 is a payload satellite owned by SpaceX/Seattle (US) in LEO that was launched on Thu, 04 Mar 2021 UTC via an FALCON 9 launch vehicle from the Air Force Eastern Test Range (AFETR). Payload-class satellites include a variety of spacecraft equipped with specific instruments for various scientific and technological missions. These include communications satellites like Starlink; space stations such as the ISS; scientific satellites like the Hubble; Earth observation satellites from companies like Planet Labs, Umbra, and HawkEye 360; GPS; miniature CubeSats for education and research; and military/defense satellites.

Loading next visibility...
Identifier
47745, 2021-017Z
Orbit
LEO
Country
Flag of USUS
Related business
Manufacturer
SpaceX/Seattle
Mission
Operational Commercial Communications
Bus & Motor
STARLINK, Unknown motor
Mass
260 kg wet, ~248 kg dry
Launch date (UTC)
2021-03-04 (5 years ago)
Launch vehicle
FALCON 9
Launch site
Air Force Eastern Test Range (AFETR)
Object type
Payload
Rocket body
Debris
Shape & HBR
Box + 1 Pan, 10.1 m
Radar Cross Section
13.562 m², Large (>1 m²)

Expand to show TLE details & history
Last TLE update: 12 hours ago

TLE from 12 hours ago
0 STARLINK-2159
1 47745U 21017Z   25346.96328245 -.00035151  00000-0 -23562-2 0  9994
2 47745  53.0514 240.9487 0002153 143.4219 216.6917 15.06342184264655
Epoch: 2025-12-12T23:07Z
TLE epoch observation values (Epoch: 2025-12-12T23:07:07.603Z)
Latitude
-0.00005°
Longitude
172.26961°
Altitude
549.463 km
Speed
7.588 km/s
True Right ascension
16h 03m 47s
True Declination
0° 00' 00"
Sunlit
Object was in daylight at epoch
Visualization orbit readout
Latitude
Unknown
Longitude
Unknown
Altitude
Unknown
Speed
Unknown
Apparent Right ascension
Unknown
Apparent Declination
Unknown
Sunlit
N/A
Visualization observer readout
Local Sidereal Time
09:14:00
Azimuth
Unknown
Elevation
Unknown
Doppler factor
Unknown
Orbital elements
Apogee altitude
549.151 km
Perigee altitude
546.169 km
Semi-major axis
6,925.797 km
Eccentricity
0.00022
Inclination
53.0514°
RAAN
240.9487°
Arg. of periapsis
143.4219°
True anomaly
216.67696°
Mean anomaly
216.6917°
Eccentric anomaly
216.68433°
Mean motion
3.76564 °/min
Orbital period
95.6 mins
BSTAR
-0.0023562
Loading maneuver chart data...
Computing Atmospheric mass density...
Loading historical data...
Loading historical data...
Loading historical data...
Loading historical data...
Loading historical data...
Loading historical data...
Loading historical data...

Documentation

Showing up to 5 results
|